No identification; RunOff=  62.2:                     

                                                                            

2000 XG47                                                      

Epoch 2001 Apr. 1.0 TT = JDT 2452000.5                  Nakano

M   3.82589              (2000.0)            P               Q

n   0.31437695     Peri.  127.40237     -0.93617384     -0.18805497

a   2.1420795      Node    44.10800     -0.04943410     -0.76606359

e   0.5415890      Incl.   25.26008     +0.34804427     -0.61463965

P   3.14           H   16.4           G   0.15           U   3

Residuals in seconds of arc 

001106 704  0.8-  0.5+    010101 726  1.4+  0.1-    010426 349  0.3+  0.2-  

001106 704  0.0   0.6-    010101 726  0.1-  0.8-    010426 349  0.1-  0.3+  

001106 704  0.2-  0.4-    010101 726  0.5+  0.4-    010426 349  0.2-  0.2+  

001106 704  0.9+  0.4-    010101 726  0.9-  1.6+    010426 349  0.2-  0.3+  

001215 704  0.0   0.3+    010114 118  0.1+  0.4+    010426 349  0.3-  0.1-  

001215 704  0.5-  1.6+    010114 118  0.2+  0.1+    010426 151  0.3+  0.0   

001215 704  0.7-  1.1+    010115 704  0.1+  0.2+    010426 151  0.0   0.0   

001215 704 (0.1+  2.2+)   010115 704  0.2-  0.0     010426 151  0.1-  0.3-  

001215 704 (1.2-  2.4+)   010115 704  0.2+  0.3-    010426 151  0.0   0.1+  

001216 704  0.1+  0.4+    010115 704  0.4-  0.4-    010426 151  0.1+  0.1+  

001216 670  1.2-  1.0-    010115 704  0.2-  0.7-    010426 151  0.1-  0.1+  

001216 704  0.2-  0.1-    010216 118  0.2+  0.2+    010426 151  0.0   0.1+  

001216 704  0.1+  0.1-    010216 118  0.3+  0.2+    010426 151  0.0   0.1-  

001216 704  0.5-  0.1-    010216 118  0.1+  0.3+    010426 151  0.1-  0.0   

001216 704  0.2+  0.2-    010217 540  0.0   0.7+    010426 151  0.0   0.3+  

001216 704  0.0   0.2+    010217 540  0.1+  0.3+    010427 939  0.1+  0.5+  

001216 704  0.3-  0.0     010217 540  0.2+  0.6+    010427 939  0.2-  0.5+  

001216 704  0.1+  0.2+    010217 540  0.1+  0.3+    010428 939  0.2-  0.2+  

001216 704  1.0+  0.4-    010319 587  0.3+  0.1+    010428 921 (3.1-  2.4-) 

001216 704  0.1+  0.1-    010319 587  0.3-  0.4+    010428 921 (0.2+  3.1-) 

001216 670  0.2-  0.2+    010404 118  0.3+  0.1+    010428 921 (2.0-  6.4-) 

001216 046  0.1+  0.5+    010404 118  0.1+  0.1+    010428 921  0.5+  0.5-  

001216 046  0.3+  0.1+    010412 704  0.3+  0.2+    010428 921 (0.9+  2.9-) 

001216 046  0.0   0.2+    010412 704  0.3+  0.1+    010428 921  1.9+  2.0-  

001216 046  0.0   0.1+    010412 704  0.2+  0.1+    010428 921 (2.0+  6.0-) 

001216 046  0.1-  0.1-    010412 704  0.4+  0.3-    010428 627  0.1-  0.2-  

001216 046  0.3+  0.2+    010412 349  0.3+  0.1-    010428 627  1.2-  0.1+  

001216 946  0.4-  0.6+    010412 349  0.2-  0.1-    010428 627  0.1-  0.0   

001216 946  0.6-  0.3-    010412 349  0.2-  0.3-    010428 627  0.2-  0.1-  

001216 946  0.1-  0.3-    010412 349  0.3-  0.1-    010428 627  1.5-  0.0   

001216 946  0.0   0.2+    010413 726  0.3-  0.3-    010428 627  0.5-  0.8-  

001217 704  0.0   0.0     010413 726  0.7-  0.3-    010428 627  0.4-  0.2-  

001217 704  0.3+  0.2+    010413 726  0.8-  0.5-    010428 627  0.1-  0.4-  

001217 704  0.1+  0.3+    010413 726  0.4-  0.6-    010428 627  0.4-  0.1-  

001217 704  0.1+  0.1-    010413 726  0.4-  0.3-    010428 627  0.2-  0.1-  

001217 704  0.2-  0.3+    010419 349  0.0   0.4+    010428 627  0.5-  0.2-  

001217 704  0.0   0.2+    010419 349  0.3-  0.4+    010428 627  0.3-  0.2-  

001217 704  0.3-  0.5+    010419 349  0.1+  0.8+    010428 627  0.5-  0.1-  

001217 704  0.3-  0.2+    010419 349  0.3-  0.8+    010428 627  0.2-  0.3-  

001217 704  0.4-  0.1-    010419 349  0.1-  0.6+    010428 627  0.4-  0.2-  

001217 704  0.1+  0.0     010419 349  0.2-  0.6+    010428 627  0.2-  0.4-  

001217 704  0.1-  0.2+    010419 349  0.0   0.4+    010428 627  0.4-  0.1-  

001217 704  0.1-  0.1+    010421 939  1.5+  0.1+    010428 627  0.4-  0.3-  

001217 704  0.1+  0.1+    010421 939  0.6-  1.0+    010428 627  0.7-  0.2+  

001217 704  0.6+  0.3-    010421 939  0.3+  0.0     010428 627  0.2-  0.3-  

001217 704  0.0   0.4+    010421 642 (2.1-  4.4-)   010428 627  0.1-  0.5+  

001217 557  0.4-  0.2-    010421 642  0.5+  0.0     010430 349  0.0   0.3+  

001217 557  0.4-  0.2+    010421 642  0.2+  0.3+    010430 349  0.1-  0.6+  

001217 557  0.5-  0.1-    010421 939  1.0+  1.1-    010430 349  0.0   0.5+  

001217 587  0.0   0.2-    010421 939  0.1-  0.3-    010430 349  0.2-  0.5+  

001217 587  0.2-  0.0     010421 939 (2.3-  1.7-)   010430 557  0.3+  0.2+  

001217 611  0.2-  0.2+    010423 113  0.5+  0.0     010430 557  0.1+  0.4+  

001217 611  0.1-  0.2+    010423 113  0.2+  0.7+    010430 557  0.1+  0.2+  

001217 611  0.2-  0.2-    010423 113  0.4+  0.2+    010430 557  0.2-  0.2+  

001218 104  1.4-  1.3+    010423 113  0.5+  0.1+    010430 557  0.3-  0.3-  

001218 104 (2.3-  0.7+)   010423 113  0.4+  0.1+    010430 952  0.1+  0.5+  

001218 104 (2.3-  1.1+)   010423 113  0.2+  0.0     010430 952  0.1+  0.3+  

001219 912  0.7-  0.4+    010423 113  0.8+  0.2-    010430 952  0.3+  0.1+  

001219 912  0.2-  0.1+    010423 113  0.4+  0.1-    010430 952  0.2-  0.0   

001219 912 (2.1-  2.4-)   010423 113  0.5+  0.1-    010430 952  0.2+  0.1-  

001219 704  0.2-  0.2-    010423 113  1.4+  1.7-    010430 952  0.1+  0.1-  

001219 704  0.2-  0.1+    010423 557  0.3+  0.2+    010430 952  0.2+  0.3+  

001219 704  0.1+  0.3-    010423 557  0.5+  0.1+    010430 952  0.4+  0.1+  

001219 704  0.0   0.4-    010423 176  0.4-  0.2-    010501 557  0.2-  0.6-  

001219 704  0.5-  0.4+    010423 176  0.3+  0.2-    010501 557  0.1-  0.4-  

001219 118  0.4-  0.3-    010423 176  0.4-  0.2+    010501 557  0.1+  0.8-  

001219 118  0.1-  0.3-    010423 176  0.4-  0.2-    010502 860  0.5+  0.5+  

001219 118  0.2-  0.3-    010423 557  0.1-  0.4+    010502 860  0.5+  0.8+  

001220 704  0.2-  0.1-    010423 557  0.4-  0.2+    010502 860  0.1-  1.0+  

001220 704  0.0   0.1+    010423 557  0.2+  0.2+    010502 118  0.2-  0.5+  

001220 704  0.1+  0.1+    010423 557  0.1+  0.4+    010502 118  0.1-  0.4+  

001220 704  0.2+  0.1+    010424 557  0.2+  0.2+    010504 644  0.3+  0.7+  

001220 704  0.2+  0.0     010424 557  0.2+  0.0     010504 644  0.2+  0.6+  

001221 912  1.7+  1.9-    010424 557  0.3+  0.2+    010504 644  0.3+  0.5+  

001221 912  1.5+  0.8-    010424 557  0.3+  0.3+    010505 939  0.1+  0.2-  

001221 912  0.7+  0.6-    010424 557  0.1+  0.1+    010505 939  0.6+  0.5-  

001222 104  0.5+  0.7-    010424 557  0.3-  0.4-    010505 939  0.2+  0.5-  

001222 104  1.0+  0.5-    010424 557  0.1-  0.4-    010510 360  0.2+  0.3+  

001222 104  1.1+  0.1+    010424 557  0.5-  0.6-    010510 360  0.3+  0.4+  

001222 104  0.8+  0.5+    010425 557  0.1-  1.0-    010510 360  0.3+  0.3+  

001223 587  0.1+  0.1+    010425 557  0.1-  1.0-    010512 342  1.2-  1.4-  

001223 587  0.6+  0.3+    010425 557  0.0   0.9-    010512 342  0.4-  1.6-  

001227 360  0.3-  0.0     010425 151  0.0   0.4+    010512 349  0.1+  0.4+  

001227 360  0.1-  0.0     010425 151  0.1+  0.5+    010512 349  0.1-  0.6+  

001227 360  0.2-  0.0     010425 151  0.2+  0.1-    010512 349  0.1-  0.0   

010101 726 (0.1-  3.0+)   010425 151  0.1-  0.0     010512 349  0.5-  0.7+  

010101 726  0.4-  0.1+    010425 151  0.2+  0.0     010512 342  0.1-  1.1-  

010101 726  1.4+  1.4-    010425 151  0.6-  0.0                             

  

NAKANO

         **** Don't distribute anyone except personal use only ****

                (C) Copyright 2001 OAA/ComputingSection

write mail from CFAD0::NAKANO on 2001-05-14 01:30:35(JST).

 



–ß‚è‚Ü‚·B